| time (UTC) | temp C | wind direction | speed KPH | gust KPH | rain 1hr cm | rain 24hr cm | rain mn cm | humidity % | barometer mb |
| 20260507041036 | 13 | 292 | 0.0 | 0.0 | 0.00 | 0.00 | 0.00 | 76 | 1015.3 |
| 20260507040537 | 13 | 293 | 0.0 | 0.0 | 0.00 | 0.00 | 0.00 | 76 | 1015.3 |
| 20260507040036 | 13 | 293 | 0.0 | 0.0 | 0.00 | 0.00 | 0.00 | 76 | 1016.4 |
| 20260507035536 | 13 | 292 | 0.0 | 0.0 | 0.00 | 0.00 | 0.00 | 75 | 1016.3 |
| 20260507035035 | 14 | 293 | 0.0 | 0.0 | 0.00 | 0.00 | 0.00 | 74 | 1016.3 |
| 20260507034539 | 14 | 293 | 0.0 | 0.0 | 0.00 | 0.00 | 0.00 | 73 | 1015.9 |
| 20260507034036 | 15 | 292 | 0.0 | 0.0 | 0.00 | 0.00 | 0.00 | 72 | 1015.9 |
| 20260507033535 | 15 | 292 | 0.0 | 0.0 | 0.00 | 0.00 | 0.00 | 73 | 1015.8 |
| 20260507033036 | 15 | 293 | 0.0 | 0.0 | 0.00 | 0.00 | 0.00 | 73 | 1015.7 |
| 20260507032539 | 15 | 293 | 0.0 | 0.0 | 0.00 | 0.00 | 0.00 | 72 | 1015.7 |
| 20260507032034 | 15 | 292 | 0.0 | 0.0 | 0.00 | 0.00 | 0.00 | 72 | 1015.3 |
| 20260507031534 | 16 | 293 | 0.0 | 0.0 | 0.00 | 0.00 | 0.00 | 69 | 1015.3 |
| 20260507031035 | 16 | 293 | 0.0 | 0.0 | 0.00 | 0.00 | 0.00 | 70 | 1015.1 |
| 20260507030535 | 16 | 292 | 0.0 | 0.0 | 0.00 | 0.00 | 0.00 | 68 | 1015.1 |
| 20260507030035 | 16 | 292 | 0.0 | 0.0 | 0.00 | 0.00 | 0.00 | 68 | 1015.9 |
| 20260507025534 | 17 | 293 | 0.0 | 0.0 | 0.00 | 0.00 | 0.00 | 66 | 1015.6 |
| 20260507025034 | 17 | 293 | 0.0 | 0.0 | 0.00 | 0.00 | 0.00 | 67 | 1015.4 |
| 20260507024537 | 17 | 292 | 0.0 | 0.0 | 0.00 | 0.00 | 0.00 | 65 | 1015.4 |
| 20260507024034 | 18 | 293 | 0.0 | 0.0 | 0.00 | 0.00 | 0.00 | 64 | 1015.0 |
| 20260507023533 | 18 | 293 | 0.0 | 0.0 | 0.00 | 0.00 | 0.00 | 63 | 1015.0 |
| 20260507023035 | 19 | 292 | 0.0 | 0.0 | 0.00 | 0.00 | 0.00 | 61 | 1014.9 |
| 20260507022533 | 20 | 292 | 0.0 | 0.0 | 0.00 | 0.00 | 0.00 | 60 | 1014.7 |
| 20260507022033 | 20 | 293 | 0.0 | 0.0 | 0.00 | 0.00 | 0.00 | 58 | 1014.7 |
| 20260507021533 | 21 | 292 | 0.0 | 0.0 | 0.00 | 0.00 | 0.00 | 55 | 1014.5 |
| 20260507021036 | 21 | 292 | 0.0 | 0.0 | 0.00 | 0.00 | 0.00 | 55 | 1014.5 |
| 20260507020533 | 21 | 293 | 0.0 | 0.0 | 0.00 | 0.00 | 0.00 | 54 | 1014.3 |
| 20260507020041 | 21 | 319 | 0.0 | 0.0 | 0.00 | 0.00 | 0.00 | 54 | 1015.5 |
| 20260507015534 | 21 | 287 | 0.0 | 0.0 | 0.00 | 0.00 | 0.00 | 52 | 1015.4 |
| 20260507015032 | 21 | 287 | 0.0 | 0.0 | 0.00 | 0.00 | 0.00 | 54 | 1015.4 |
| 20260507014532 | 21 | 291 | 0.0 | 0.0 | 0.00 | 0.00 | 0.00 | 54 | 1015.4 |
| 20260507014033 | 22 | 19 | 0.0 | 0.0 | 0.00 | 0.00 | 0.00 | 55 | 1015.3 |
| 20260507013531 | 22 | 19 | 1.6 | 0.0 | 0.00 | 0.00 | 0.00 | 54 | 1015.3 |
| 20260507013046 | 22 | 21 | 1.6 | 0.0 | 0.00 | 0.00 | 0.00 | 51 | 1015.4 |
| 20260507012531 | 22 | 23 | 1.6 | 0.0 | 0.00 | 0.00 | 0.00 | 51 | 1015.3 |
| 20260507012031 | 22 | 234 | 0.0 | 0.0 | 0.00 | 0.00 | 0.00 | 52 | 1015.1 |
| 20260507011533 | 22 | 11 | 1.6 | 0.0 | 0.00 | 0.00 | 0.00 | 54 | 1015.1 |
| 20260507011033 | 22 | 15 | 1.6 | 0.0 | 0.00 | 0.00 | 0.00 | 54 | 1015.0 |
| 20260507010532 | 22 | 21 | 1.6 | 0.0 | 0.00 | 0.00 | 0.00 | 53 | 1015.1 |
| 20260507010036 | 22 | 22 | 1.6 | 0.0 | 0.00 | 0.00 | 0.00 | 53 | 1011.4 |
| 20260507005530 | 22 | 13 | 3.2 | 0.0 | 0.00 | 0.00 | 0.00 | 54 | 1011.5 |
| 20260507005030 | 22 | 19 | 3.2 | 0.0 | 0.00 | 0.00 | 0.00 | 55 | 1011.4 |
| 20260507004530 | 22 | 15 | 3.2 | 0.0 | 0.00 | 0.00 | 0.00 | 55 | 1011.4 |
| 20260507004030 | 22 | 24 | 4.8 | 0.0 | 0.00 | 0.00 | 0.00 | 54 | 1011.2 |
| 20260507003533 | 22 | 360 | 4.8 | 0.0 | 0.00 | 0.00 | 0.00 | 54 | 1011.2 |
| 20260507003030 | 23 | 13 | 4.8 | 0.0 | 0.00 | 0.00 | 0.00 | 54 | 1011.1 |
| 20260507002531 | 23 | 360 | 6.4 | 0.0 | 0.00 | 0.00 | 0.00 | 53 | 1011.1 |
| 20260507002029 | 23 | 11 | 6.4 | 0.0 | 0.00 | 0.00 | 0.00 | 52 | 1011.1 |
| 20260507001532 | 23 | 16 | 4.8 | 0.0 | 0.00 | 0.00 | 0.00 | 51 | 1010.9 |
| 20260507001028 | 23 | 28 | 4.8 | 0.0 | 0.00 | 0.00 | 0.00 | 49 | 1010.8 |
| 20260507000529 | 23 | 360 | 6.4 | 0.0 | 0.00 | 0.00 | 0.00 | 50 | 1010.9 |
| 20260507000029 | 23 | 12 | 3.2 | 0.0 | 0.00 | 0.00 | 0.00 | 50 | 1010.8 |
| 20260506235529 | 23 | 11 | 3.2 | 0.0 | 0.00 | 0.00 | 0.00 | 51 | 1010.9 |
| 20260506235028 | 23 | 360 | 4.8 | 0.0 | 0.00 | 0.00 | 0.00 | 52 | 1011.1 |
| 20260506234535 | 23 | 20 | 6.4 | 0.0 | 0.00 | 0.00 | 0.00 | 51 | 1011.1 |
| 20260506234028 | 23 | 5 | 4.8 | 0.0 | 0.00 | 0.00 | 0.00 | 53 | 1010.8 |
| 20260506233526 | 23 | 355 | 4.8 | 0.0 | 0.00 | 0.00 | 0.00 | 55 | 1010.7 |
| 20260506233040 | 23 | 355 | 4.8 | 0.0 | 0.00 | 0.00 | 0.00 | 55 | 1011.0 |
| 20260506232527 | 22 | 355 | 4.8 | 0.0 | 0.00 | 0.00 | 0.00 | 55 | 1010.9 |
| 20260506232025 | 23 | 355 | 4.8 | 0.0 | 0.00 | 0.00 | 0.00 | 55 | 1010.9 |
| 20260506231528 | 22 | 13 | 4.8 | 0.0 | 0.00 | 0.00 | 0.00 | 56 | 1011.0 |
| 20260506231023 | 22 | 11 | 4.8 | 0.0 | 0.00 | 0.00 | 0.00 | 56 | 1011.2 |
| 20260506230523 | 22 | 25 | 4.8 | 0.0 | 0.00 | 0.00 | 0.00 | 56 | 1011.0 |
| 20260506230026 | 22 | 13 | 6.4 | 0.0 | 0.00 | 0.00 | 0.00 | 56 | 1011.3 |
| 20260506225522 | 22 | 11 | 6.4 | 0.0 | 0.00 | 0.00 | 0.00 | 56 | 1011.3 |
| 20260506225022 | 22 | 5 | 4.8 | 0.0 | 0.00 | 0.00 | 0.00 | 56 | 1011.3 |
| 20260506224521 | 22 | 360 | 4.8 | 0.0 | 0.00 | 0.00 | 0.00 | 57 | 1011.5 |
| 20260506224022 | 22 | 360 | 4.8 | 0.0 | 0.00 | 0.00 | 0.00 | 56 | 1011.5 |
| 20260506223520 | 22 | 5 | 6.4 | 0.0 | 0.00 | 0.00 | 0.00 | 56 | 1011.6 |
| 20260506223020 | 22 | 32 | 6.4 | 0.0 | 0.00 | 0.00 | 0.00 | 57 | 1011.6 |
| 20260506222521 | 22 | 11 | 6.4 | 0.0 | 0.00 | 0.00 | 0.00 | 57 | 1011.7 |
| 20260506222023 | 22 | 14 | 4.8 | 0.0 | 0.00 | 0.00 | 0.00 | 56 | 1011.7 |
| 20260506221519 | 22 | 21 | 4.8 | 0.0 | 0.00 | 0.00 | 0.00 | 57 | 1011.7 |
| 20260506221018 | 22 | 355 | 4.8 | 0.0 | 0.00 | 0.00 | 0.00 | 57 | 1012.0 |
| 20260506220518 | 22 | 17 | 3.2 | 0.0 | 0.00 | 0.00 | 0.00 | 57 | 1011.8 |
| 20260506220023 | 22 | 342 | 3.2 | 0.0 | 0.00 | 0.00 | 0.00 | 59 | 1012.0 |
| 20260506215517 | 21 | 349 | 4.8 | 0.0 | 0.00 | 0.00 | 0.00 | 59 | 1012.4 |
| 20260506215017 | 21 | 355 | 6.4 | 0.0 | 0.00 | 0.00 | 0.00 | 57 | 1012.6 |
| 20260506214516 | 21 | 24 | 6.4 | 0.0 | 0.00 | 0.00 | 0.00 | 58 | 1012.6 |
| 20260506214017 | 21 | 355 | 6.4 | 0.0 | 0.00 | 0.00 | 0.00 | 57 | 1012.6 |
| 20260506213516 | 21 | 18 | 4.8 | 0.0 | 0.00 | 0.00 | 0.00 | 57 | 1012.6 |
| 20260506213016 | 21 | 339 | 4.8 | 0.0 | 0.00 | 0.00 | 0.00 | 57 | 1012.5 |
| 20260506212515 | 21 | 327 | 4.8 | 0.0 | 0.00 | 0.00 | 0.00 | 57 | 1012.6 |
| 20260506212014 | 21 | 269 | 4.8 | 0.0 | 0.00 | 0.00 | 0.00 | 58 | 1012.5 |
| 20260506211522 | 21 | 355 | 6.4 | 0.0 | 0.00 | 0.00 | 0.00 | 58 | 1012.8 |
| 20260506211013 | 21 | 11 | 6.4 | 0.0 | 0.00 | 0.00 | 0.00 | 59 | 1012.9 |
| 20260506210522 | 20 | 355 | 8.0 | 0.0 | 0.00 | 0.00 | 0.00 | 60 | 1012.9 |
| 20260506210022 | 20 | 351 | 8.0 | 0.0 | 0.00 | 0.00 | 0.00 | 59 | 1013.0 |
| 20260506205512 | 20 | 15 | 8.0 | 0.0 | 0.00 | 0.00 | 0.00 | 60 | 1013.1 |
| 20260506205019 | 20 | 348 | 8.0 | 0.0 | 0.00 | 0.00 | 0.00 | 60 | 1013.0 |
| 20260506204512 | 20 | 32 | 8.0 | 0.0 | 0.00 | 0.00 | 0.00 | 61 | 1013.0 |
| 20260506204012 | 20 | 10 | 8.0 | 0.0 | 0.00 | 0.00 | 0.00 | 60 | 1013.0 |
| 20260506203511 | 20 | 26 | 8.0 | 0.0 | 0.00 | 0.00 | 0.00 | 59 | 1013.0 |
| 20260506203011 | 20 | 11 | 9.7 | 0.0 | 0.00 | 0.00 | 0.00 | 59 | 1012.9 |
| 20260506202513 | 20 | 36 | 8.0 | 0.0 | 0.00 | 0.00 | 0.00 | 58 | 1012.9 |
| 20260506202011 | 20 | 360 | 6.4 | 0.0 | 0.00 | 0.00 | 0.00 | 58 | 1013.1 |
| 20260506201511 | 20 | 10 | 6.4 | 0.0 | 0.00 | 0.00 | 0.00 | 58 | 1013.0 |
| 20260506201015 | 20 | 346 | 6.4 | 0.0 | 0.00 | 0.00 | 0.00 | 57 | 1013.0 |
| 20260506200510 | 20 | 5 | 6.4 | 0.0 | 0.00 | 0.00 | 0.00 | 56 | 1013.0 |
| 20260506200022 | 20 | 355 | 6.4 | 0.0 | 0.00 | 0.00 | 0.00 | 57 | 1013.0 |
| 20260506195511 | 20 | 305 | 6.4 | 0.0 | 0.00 | 0.00 | 0.00 | 56 | 1013.0 |
| 20260506195013 | 20 | 5 | 8.0 | 0.0 | 0.00 | 0.00 | 0.00 | 57 | 1013.0 |
| 20260506194509 | 20 | 338 | 8.0 | 0.0 | 0.00 | 0.00 | 0.00 | 56 | 1013.0 |
| 20260506194009 | 20 | 5 | 6.4 | 0.0 | 0.00 | 0.00 | 0.00 | 55 | 1013.0 |
| 20260506193508 | 20 | 360 | 4.8 | 0.0 | 0.00 | 0.00 | 0.00 | 55 | 1013.1 |
| 20260506193009 | 20 | 316 | 4.8 | 0.0 | 0.00 | 0.00 | 0.00 | 55 | 1012.9 |
| 20260506192508 | 20 | 11 | 6.4 | 0.0 | 0.00 | 0.00 | 0.00 | 55 | 1012.9 |
| 20260506192007 | 20 | 289 | 6.4 | 0.0 | 0.00 | 0.00 | 0.00 | 55 | 1013.2 |
| 20260506191507 | 20 | 355 | 6.4 | 0.0 | 0.00 | 0.00 | 0.00 | 55 | 1013.2 |
| 20260506191007 | 20 | 360 | 4.8 | 0.0 | 0.00 | 0.00 | 0.00 | 54 | 1013.2 |
| 20260506190507 | 20 | 355 | 4.8 | 0.0 | 0.00 | 0.00 | 0.00 | 54 | 1013.2 |
| 20260506190007 | 20 | 346 | 3.2 | 0.0 | 0.00 | 0.00 | 0.00 | 54 | 1016.3 |
| 20260506185511 | 20 | 360 | 3.2 | 0.0 | 0.00 | 0.00 | 0.00 | 54 | 1016.3 |
| 20260506185006 | 20 | 329 | 3.2 | 0.0 | 0.00 | 0.00 | 0.00 | 53 | 1016.3 |
| 20260506184506 | 21 | 11 | 1.6 | 0.0 | 0.00 | 0.00 | 0.00 | 52 | 1016.4 |
| 20260506184010 | 21 | 300 | 0.0 | 0.0 | 0.00 | 0.00 | 0.00 | 52 | 1016.2 |
| 20260506183506 | 21 | 296 | 0.0 | 0.0 | 0.00 | 0.00 | 0.00 | 53 | 1016.4 |
| 20260506183006 | 21 | 300 | 0.0 | 0.0 | 0.00 | 0.00 | 0.00 | 52 | 1016.4 |
| 20260506182505 | 20 | 294 | 0.0 | 0.0 | 0.00 | 0.00 | 0.00 | 53 | 1016.5 |
| 20260506182005 | 20 | 292 | 0.0 | 0.0 | 0.00 | 0.00 | 0.00 | 53 | 1016.4 |
| 20260506181509 | 20 | 287 | 0.0 | 0.0 | 0.00 | 0.00 | 0.00 | 51 | 1016.6 |
| 20260506181005 | 20 | 287 | 1.6 | 0.0 | 0.00 | 0.00 | 0.00 | 53 | 1016.6 |
| 20260506180505 | 20 | 287 | 1.6 | 0.0 | 0.00 | 0.00 | 0.00 | 53 | 1016.6 |
| 20260506180013 | 20 | 283 | 1.6 | 0.0 | 0.00 | 0.00 | 0.00 | 54 | 1016.6 |
| 20260506175503 | 20 | 290 | 0.0 | 0.0 | 0.00 | 0.00 | 0.00 | 51 | 1016.5 |
| 20260506175003 | 21 | 277 | 0.0 | 0.0 | 0.00 | 0.00 | 0.00 | 50 | 1016.4 |
| 20260506174503 | 21 | 113 | 0.0 | 0.0 | 0.00 | 0.00 | 0.00 | 49 | 1016.4 |
| 20260506174004 | 21 | 109 | 0.0 | 0.0 | 0.00 | 0.00 | 0.00 | 49 | 1016.4 |
| 20260506173504 | 21 | 109 | 0.0 | 0.0 | 0.00 | 0.00 | 0.00 | 48 | 1016.4 |
| 20260506173003 | 21 | 105 | 0.0 | 0.0 | 0.00 | 0.00 | 0.00 | 48 | 1016.3 |
| 20260506172501 | 21 | 109 | 0.0 | 0.0 | 0.00 | 0.00 | 0.00 | 50 | 1016.3 |
| 20260506172059 | 20 | 109 | 0.0 | 0.0 | 0.00 | 0.00 | 0.00 | 51 | 1016.3 |
| 20260506171610 | 20 | 107 | 0.0 | 0.0 | 0.00 | 0.00 | 0.00 | 48 | 1016.3 |
| 20260506171059 | 20 | 107 | 0.0 | 0.0 | 0.00 | 0.00 | 0.00 | 48 | 1016.3 |
| 20260506170559 | 20 | 104 | 0.0 | 0.0 | 0.00 | 0.00 | 0.00 | 47 | 1016.5 |
| 20260506165556 | 20 | 111 | 0.0 | 0.0 | 0.00 | 0.00 | 0.00 | 49 | 1016.3 |
| 20260506165055 | 19 | 111 | 0.0 | 0.0 | 0.00 | 0.00 | 0.00 | 50 | 1016.4 |
| 20260506164612 | 19 | 113 | 0.0 | 0.0 | 0.00 | 0.00 | 0.00 | 49 | 1016.4 |
| 20260506164053 | 19 | 113 | 0.0 | 0.0 | 0.00 | 0.00 | 0.00 | 53 | 1016.5 |
| 20260506163553 | 18 | 113 | 0.0 | 0.0 | 0.00 | 0.00 | 0.00 | 53 | 1016.6 |
| 20260506163057 | 17 | 113 | 0.0 | 0.0 | 0.00 | 0.00 | 0.00 | 53 | 1016.9 |
| 20260506162549 | 17 | 113 | 0.0 | 0.0 | 0.00 | 0.00 | 0.00 | 54 | 1017.2 |
| 20260506162047 | 16 | 113 | 0.0 | 0.0 | 0.00 | 0.00 | 0.00 | 56 | 1017.2 |
| 20260506161546 | 16 | 113 | 0.0 | 0.0 | 0.00 | 0.00 | 0.00 | 57 | 1017.2 |
| 20260506161043 | 16 | 113 | 0.0 | 0.0 | 0.00 | 0.00 | 0.00 | 57 | 1017.4 |
| 20260506160543 | 15 | 117 | 0.0 | 0.0 | 0.00 | 0.00 | 0.00 | 61 | 1017.5 |
| 20260506160049 | 15 | 117 | 0.0 | 0.0 | 0.00 | 0.00 | 0.00 | 60 | 1017.7 |
| 20260506155540 | 14 | 117 | 0.0 | 0.0 | 0.00 | 0.00 | 0.00 | 62 | 1017.3 |
| 20260506155040 | 14 | 121 | 0.0 | 0.0 | 0.00 | 0.00 | 0.00 | 64 | 1017.5 |
| 20260506154548 | 13 | 123 | 0.0 | 0.0 | 0.00 | 0.00 | 0.00 | 65 | 1017.6 |
| 20260506154037 | 13 | 123 | 0.0 | 0.0 | 0.00 | 0.00 | 0.00 | 66 | 1017.6 |
| 20260506153535 | 13 | 123 | 0.0 | 0.0 | 0.00 | 0.00 | 0.00 | 67 | 1017.6 |
| 20260506153036 | 13 | 122 | 0.0 | 0.0 | 0.00 | 0.00 | 0.00 | 67 | 1017.9 |
| 20260506152535 | 13 | 122 | 0.0 | 0.0 | 0.00 | 0.00 | 0.00 | 67 | 1018.0 |
| 20260506152033 | 12 | 122 | 0.0 | 0.0 | 0.00 | 0.00 | 0.00 | 70 | 1018.1 |
| 20260506151533 | 12 | 122 | 0.0 | 0.0 | 0.00 | 0.00 | 0.00 | 73 | 1018.3 |
| 20260506151032 | 11 | 122 | 0.0 | 0.0 | 0.00 | 0.00 | 0.00 | 74 | 1018.5 |
| 20260506150529 | 11 | 122 | 0.0 | 0.0 | 0.00 | 0.00 | 0.00 | 77 | 1018.7 |
| 20260506150028 | 10 | 122 | 0.0 | 0.0 | 0.00 | 0.00 | 0.00 | 81 | 1018.9 |
| 20260506145527 | 8 | 122 | 0.0 | 0.0 | 0.00 | 0.00 | 0.00 | 83 | 1018.5 |
| 20260506145024 | 7 | 122 | 0.0 | 0.0 | 0.00 | 0.00 | 0.00 | 86 | 1018.9 |
| 20260506144529 | 7 | 123 | 0.0 | 0.0 | 0.00 | 0.00 | 0.00 | 87 | 1019.0 |
| 20260506144023 | 6 | 123 | 0.0 | 0.0 | 0.00 | 0.00 | 0.00 | 88 | 1019.0 |
| 20260506143521 | 5 | 123 | 0.0 | 0.0 | 0.00 | 0.00 | 0.00 | 88 | 1019.3 |
| 20260506143022 | 5 | 122 | 0.0 | 0.0 | 0.00 | 0.00 | 0.00 | 89 | 1019.3 |
| 20260506142517 | 5 | 123 | 0.0 | 0.0 | 0.00 | 0.00 | 0.00 | 89 | 1019.5 |
| 20260506142016 | 4 | 123 | 0.0 | 0.0 | 0.00 | 0.00 | 0.00 | 89 | 1019.6 |
| 20260506141516 | 3 | 122 | 0.0 | 0.0 | 0.00 | 0.00 | 0.00 | 90 | 1019.6 |
| 20260506141017 | 3 | 122 | 0.0 | 0.0 | 0.00 | 0.00 | 0.00 | 90 | 1019.8 |
| 20260506140516 | 3 | 123 | 0.0 | 0.0 | 0.00 | 0.00 | 0.00 | 90 | 1019.8 |
| 20260506140016 | 3 | 122 | 0.0 | 0.0 | 0.00 | 0.00 | 0.00 | 90 | 1019.9 |
| 20260506135515 | 2 | 123 | 0.0 | 0.0 | 0.00 | 0.00 | 0.00 | 91 | 1019.4 |
| 20260506135015 | 2 | 123 | 0.0 | 0.0 | 0.00 | 0.00 | 0.00 | 91 | 1019.5 |
| 20260506134515 | 2 | 123 | 0.0 | 0.0 | 0.00 | 0.00 | 0.00 | 91 | 1019.5 |
| 20260506134013 | -17 | 0.0 | 0.0 | 0.00 | 0.00 | 0.00 | 1016.8 | ||
| 20260506133512 | -17 | 0.0 | 0.0 | 0.00 | 0.00 | 0.00 | 1016.8 | ||
| 20260506133013 | -17 | 0.0 | 0.0 | 0.00 | 0.00 | 0.00 | 1016.7 | ||
| 20260506132512 | -17 | 0.0 | 0.0 | 0.00 | 0.00 | 0.00 | 1016.8 | ||
| 20260506132010 | -17 | 0.0 | 0.0 | 0.00 | 0.00 | 0.00 | 1016.7 | ||
| 20260506131508 | -17 | 0.0 | 0.0 | 0.00 | 0.00 | 0.00 | 1016.7 | ||
| 20260506131004 | -17 | 0.0 | 0.0 | 0.00 | 0.00 | 0.00 | 1016.6 | ||
| 20260506130503 | -17 | 0.0 | 0.0 | 0.00 | 0.00 | 0.00 | 1016.6 | ||
| 20260506130001 | -17 | 0.0 | 0.0 | 0.00 | 0.00 | 0.00 | 1016.5 | ||
| 20260506125601 | -17 | 0.0 | 0.0 | 0.00 | 0.00 | 0.00 | 1016.5 | ||
| 20260506125059 | -17 | 0.0 | 0.0 | 0.00 | 0.00 | 0.00 | 1016.4 | ||
| 20260506124558 | -17 | 0.0 | 0.0 | 0.00 | 0.00 | 0.00 | 1016.5 | ||
| 20260506124057 | -17 | 0.0 | 0.0 | 0.00 | 0.00 | 0.00 | 1016.5 | ||
| 20260506123555 | -17 | 0.0 | 0.0 | 0.00 | 0.00 | 0.00 | 1016.4 | ||
| 20260506123054 | -17 | 0.0 | 0.0 | 0.00 | 0.00 | 0.00 | 1016.4 | ||
| 20260506122553 | -17 | 0.0 | 0.0 | 0.00 | 0.00 | 0.00 | 1016.4 | ||
| 20260506122050 | -17 | 0.0 | 0.0 | 0.00 | 0.00 | 0.00 | 1016.4 | ||
| 20260506121559 | -17 | 0.0 | 0.0 | 0.00 | 0.00 | 0.00 | 1016.3 | ||
| 20260506121048 | -17 | 0.0 | 0.0 | 0.00 | 0.00 | 0.00 | 1016.4 | ||
| 20260506120548 | -17 | 0.0 | 0.0 | 0.00 | 0.00 | 0.00 | 1016.3 | ||
| 20260506120109 | -17 | 0.0 | 0.0 | 0.00 | 0.00 | 0.00 | 1016.2 | ||
| 20260506115543 | -17 | 0.0 | 0.0 | 0.00 | 0.00 | 0.00 | 1015.5 | ||
| 20260506115042 | -17 | 0.0 | 0.0 | 0.00 | 0.00 | 0.00 | 1015.5 | ||
| 20260506114545 | -17 | 0.0 | 0.0 | 0.00 | 0.00 | 0.00 | 1015.5 | ||
| 20260506114040 | -17 | 0.0 | 0.0 | 0.00 | 0.00 | 0.00 | 1015.5 | ||
| 20260506113538 | -17 | 0.0 | 0.0 | 0.00 | 0.00 | 0.00 | 1015.4 | ||
| 20260506113037 | -17 | 0.0 | 0.0 | 0.00 | 0.00 | 0.00 | 1015.3 | ||
| 20260506112535 | -17 | 0.0 | 0.0 | 0.00 | 0.00 | 0.00 | 1015.4 | ||
| 20260506112034 | -17 | 0.0 | 0.0 | 0.00 | 0.00 | 0.00 | 1015.5 | ||
| 20260506111532 | -17 | 0.0 | 0.0 | 0.00 | 0.00 | 0.00 | 1015.5 | ||
| 20260506111031 | -17 | 0.0 | 0.0 | 0.00 | 0.00 | 0.00 | 1015.3 | ||
| 20260506110529 | -17 | 0.0 | 0.0 | 0.00 | 0.00 | 0.00 | 1015.3 | ||
| 20260506110029 | -17 | 0.0 | 0.0 | 0.00 | 0.00 | 0.00 | 1015.3 | ||
| 20260506105529 | -17 | 0.0 | 0.0 | 0.00 | 0.00 | 0.00 | 1015.8 | ||
| 20260506105025 | -17 | 0.0 | 0.0 | 0.00 | 0.00 | 0.00 | 1015.7 | ||
| 20260506104524 | -17 | 0.0 | 0.0 | 0.00 | 0.00 | 0.00 | 1015.7 | ||
| 20260506104022 | -17 | 0.0 | 0.0 | 0.00 | 0.00 | 0.00 | 1015.8 | ||
| 20260506103521 | -17 | 0.0 | 0.0 | 0.00 | 0.00 | 0.00 | 1015.7 | ||
| 20260506103027 | -17 | 0.0 | 0.0 | 0.00 | 0.00 | 0.00 | 1015.7 | ||
| 20260506102518 | -17 | 0.0 | 0.0 | 0.00 | 0.00 | 0.00 | 1015.8 | ||
| 20260506102016 | -17 | 0.0 | 0.0 | 0.00 | 0.00 | 0.00 | 1015.8 | ||
| 20260506101515 | -17 | 0.0 | 0.0 | 0.00 | 0.00 | 0.00 | 1015.7 | ||
| 20260506101013 | -17 | 0.0 | 0.0 | 0.00 | 0.00 | 0.00 | 1015.7 | ||
| 20260506100512 | -17 | 0.0 | 0.0 | 0.00 | 0.00 | 0.00 | 1015.7 | ||
| 20260506100011 | -17 | 0.0 | 0.0 | 0.00 | 0.00 | 0.00 | 1015.7 | ||
| 20260506095510 | -17 | 0.0 | 0.0 | 0.00 | 0.00 | 0.00 | 1016.3 | ||
| 20260506095008 | -17 | 0.0 | 0.0 | 0.00 | 0.00 | 0.00 | 1016.3 | ||
| 20260506094513 | -17 | 0.0 | 0.0 | 0.00 | 0.00 | 0.00 | 1016.3 | ||
| 20260506094005 | -17 | 0.0 | 0.0 | 0.00 | 0.00 | 0.00 | 1016.3 | ||
| 20260506093503 | -17 | 0.0 | 0.0 | 0.00 | 0.00 | 0.00 | 1016.3 | ||
| 20260506093002 | -17 | 0.0 | 0.0 | 0.00 | 0.00 | 0.00 | 1016.2 | ||
| 20260506092600 | -17 | 0.0 | 0.0 | 0.00 | 0.00 | 0.00 | 1016.3 | ||
| 20260506092059 | -17 | 0.0 | 0.0 | 0.00 | 0.00 | 0.00 | 1016.2 | ||
| 20260506091557 | -17 | 0.0 | 0.0 | 0.00 | 0.00 | 0.00 | 1016.2 | ||
| 20260506091056 | -17 | 0.0 | 0.0 | 0.00 | 0.00 | 0.00 | 1016.4 | ||
| 20260506090553 | -17 | 0.0 | 0.0 | 0.00 | 0.00 | 0.00 | 1016.4 | ||
| 20260506090053 | -17 | 0.0 | 0.0 | 0.00 | 0.00 | 0.00 | 1016.5 | ||
| 20260506085551 | -17 | 0.0 | 0.0 | 0.00 | 0.00 | 0.00 | 1016.5 | ||
| 20260506085050 | -17 | 0.0 | 0.0 | 0.00 | 0.00 | 0.00 | 1016.5 | ||
| 20260506084549 | -17 | 0.0 | 0.0 | 0.00 | 0.00 | 0.00 | 1016.6 | ||
| 20260506084047 | -17 | 0.0 | 0.0 | 0.00 | 0.00 | 0.00 | 1016.5 | ||
| 20260506083546 | -17 | 0.0 | 0.0 | 0.00 | 0.00 | 0.00 | 1016.5 | ||
| 20260506083047 | -17 | 0.0 | 0.0 | 0.00 | 0.00 | 0.00 | 1016.4 | ||
| 20260506082545 | -17 | 0.0 | 0.0 | 0.00 | 0.00 | 0.00 | 1016.4 | ||
| 20260506082040 | -17 | 0.0 | 0.0 | 0.00 | 0.00 | 0.00 | 1016.4 | ||
| 20260506081540 | -17 | 0.0 | 0.0 | 0.00 | 0.00 | 0.00 | 1016.5 | ||
| 20260506081038 | -17 | 0.0 | 0.0 | 0.00 | 0.00 | 0.00 | 1016.4 | ||
| 20260506080540 | -17 | 0.0 | 0.0 | 0.00 | 0.00 | 0.00 | 1016.4 | ||
| 20260506073028 | 4 | 123 | 0.0 | 0.0 | 0.00 | 0.00 | 0.00 | 87 | 1018.2 |
| 20260506072526 | 4 | 123 | 0.0 | 0.0 | 0.00 | 0.00 | 0.00 | 87 | 1018.3 |
| 20260506072025 | 4 | 123 | 0.0 | 0.0 | 0.00 | 0.00 | 0.00 | 87 | 1018.0 |
| 20260506071525 | 4 | 122 | 0.0 | 0.0 | 0.00 | 0.00 | 0.00 | 87 | 1017.9 |
| 20260506071022 | 4 | 123 | 0.0 | 0.0 | 0.00 | 0.00 | 0.00 | 87 | 1017.9 |
| 20260506070522 | 4 | 123 | 0.0 | 0.0 | 0.00 | 0.00 | 0.00 | 87 | 1017.8 |
| 20260506062017 | 5 | 123 | 0.0 | 0.0 | 0.00 | 0.00 | 0.00 | 86 | 1017.1 |
| 20260506061524 | 5 | 122 | 0.0 | 0.0 | 0.00 | 0.00 | 0.00 | 86 | 1017.1 |
| 20260506061019 | 5 | 123 | 0.0 | 0.0 | 0.00 | 0.00 | 0.00 | 86 | 1017.2 |
| 20260506060514 | 5 | 123 | 0.0 | 0.0 | 0.00 | 0.00 | 0.00 | 85 | 1017.1 |
| 20260506051006 | 6 | 123 | 0.0 | 0.0 | 0.00 | 0.00 | 0.00 | 84 | 1016.7 |
| 20260506050507 | 6 | 123 | 0.0 | 0.0 | 0.00 | 0.00 | 0.00 | 84 | 1016.6 |
| 20260506045005 | 6 | 123 | 0.0 | 0.0 | 0.00 | 0.00 | 0.00 | 82 | 1016.6 |
| 20260506044508 | 6 | 122 | 0.0 | 0.0 | 0.00 | 0.00 | 0.00 | 82 | 1016.6 |
| 20260506044003 | 7 | 123 | 0.0 | 0.0 | 0.00 | 0.00 | 0.00 | 81 | 1016.4 |
| 20260506043503 | 7 | 123 | 0.0 | 0.0 | 0.00 | 0.00 | 0.00 | 81 | 1016.4 |
| 20260506043004 | 7 | 123 | 0.0 | 0.0 | 0.00 | 0.00 | 0.00 | 81 | 1016.1 |
| 20260506042600 | 7 | 123 | 0.0 | 0.0 | 0.00 | 0.00 | 0.00 | 81 | 1016.0 |
| 20260506042102 | 7 | 122 | 0.0 | 0.0 | 0.00 | 0.00 | 0.00 | 80 | 1016.0 |
| 20260506041559 | 7 | 123 | 0.0 | 0.0 | 0.00 | 0.00 | 0.00 | 80 | 1016.0 |